Probability
0 0 0 0 0 0 0 0 0 0 0 0 0 1 2 3 4 5 5 5 4 4 4 6 9 8 6 4 4 4 3 3 4 4 2 1 2 3 2 2 2 3 3 3
0 0 0 0 0 0 0 0 0 0 0 0 0 0 2 4 4 5 5 5 4 4 5 7 9 9 7 5 5 4 3 3 4 5 4 3 2 2 2 1 2 3 3 2
0 0 0 0 0 0 0 0 0 0 0 0 0 1 2 4 4 5 5 4 3 5 7 8 10 11 10 7 6 5 4 4 5 6 6 4 2 1 1 0 1 2 2 1
0 0 0 0 0 0 0 0 0 0 0 0 1 2 2 2 3 5 4 3 3 6 8 9 10 12 11 8 6 6 6 6 6 7 6 4 2 0 0 0 1 1 1 0
0 0 0 0 0 0 0 0 0 0 0 0 1 2 1 0 1 3 3 2 3 7 11 11 11 11 11 10 9 8 7 7 8 8 6 4 2 1 1 0 0 0 0 1
0 0 0 0 0 0 0 0 0 0 0 0 1 1 0 0 0 1 2 2 5 10 14 13 12 11 11 11 12 12 10 9 9 9 6 4 3 3 2 1 1 0 1 2
0 0 0 0 0 0 0 0 0 0 0 0 0 0 0 0 0 1 2 3 7 12 13 12 12 11 11 12 15 16 13 11 10 9 7 5 4 4 3 3 2 2 2 3
0 0 0 0 0 0 0 0 0 0 0 0 0 0 0 0 0 0 1 3 7 10 10 9 11 12 12 12 16 18 16 13 11 9 8 6 5 4 3 3 3 3 4 5
0 0 0 0 0 0 0 0 0 0 0 0 0 0 0 0 0 0 0 2 5 7 6 6 9 13 13 13 16 19 17 14 12 11 8 7 5 4 4 4 4 5 6 6
0 0 0 0 0 0 0 0 0 0 0 0 0 0 0 0 0 0 0 2 3 5 4 4 5 9 11 12 15 20 19 16 14 12 10 7 6 5 6 6 6 7 7 7
0 0 0 0 0 0 0 0 0 0 0 0 0 0 0 0 0 0 1 2 4 5 6 5 4 6 9 12 17 21 20 16 14 14 12 10 10 9 9 8 7 8 9 9
0 0 0 0 0 0 0 0 0 0 0 0 0 0 0 0 0 0 1 3 6 8 9 7 5 6 10 16 21 23 21 16 14 14 14 13 13 13 11 9 8 8 9 10
0 0 0 0 0 0 0 0 0 0 0 0 0 0 0 1 1 2 2 4 7 10 10 9 7 7 13 21 25 24 22 18 14 14 15 15 14 14 13 12 11 10 10 10
0 0 0 0 0 0 0 0 0 0 0 0 0 0 1 3 4 4 3 4 7 10 11 11 9 9 13 19 22 22 22 19 16 16 16 15 15 16 17 16 15 14 13 12
0 0 0 0 0 0 0 0 0 0 0 0 0 1 2 4 4 3 3 5 7 10 12 13 11 9 10 14 16 17 18 18 18 19 17 16 17 19 19 19 19 18 16 16
0 0 0 0 0 0 0 0 0 0 0 0 1 1 3 4 4 2 3 6 8 10 13 14 12 10 11 13 12 12 14 17 20 21 19 18 20 20 20 20 21 20 19 19
0 0 0 0 0 0 0 1 1 1 1 1 1 1 4 6 5 3 4 7 9 11 14 17 15 12 13 14 13 11 12 16 20 21 21 22 23 24 22 22 23 22 20 19
0 0 0 0 0 0 0 1 2 2 1 1 1 3 6 9 8 6 7 8 10 11 15 18 18 16 16 16 17 18 17 18 21 22 22 23 24 25 25 23 23 22 20 17
0 0 0 0 0 0 0 0 1 1 1 3 5 7 9 11 11 11 10 10 11 12 14 16 19 21 22 22 24 25 23 22 23 23 22 22 22 22 23 22 21 20 18 15
0 0 0 0 0 0 0 0 0 0 2 5 9 11 12 12 13 12 11 10 11 12 12 15 20 25 28 28 28 28 25 23 23 23 21 21 21 19 19 19 19 18 16 15
0 0 0 0 0 0 1 1 0 0 2 6 9 11 12 12 11 11 13 12 12 12 13 16 21 24 25 26 27 27 24 21 19 18 18 19 19 17 17 17 17 17 17 16
0 0 0 0 0 0 2 2 1 2 4 7 8 10 11 11 10 12 15 15 14 14 15 16 17 17 17 20 23 23 20 18 16 15 16 17 18 17 17 16 15 15 15 14
0 0 0 1 1 2 3 4 4 5 8 10 10 11 12 12 12 13 15 14 13 13 13 12 13 14 14 16 18 18 16 16 16 16 17 18 18 18 18 15 13 13 12 11
0 0 1 2 4 5 7 9 9 10 12 13 13 13 14 14 13 13 13 13 12 13 12 11 12 15 16 16 15 14 15 17 17 18 19 20 19 18 17 15 13 12 11 10
0 0 1 3 5 7 9 10 12 13 14 15 15 14 14 14 13 13 13 13 14 15 15 14 14 15 16 15 13 14 15 17 19 19 19 19 19 18 16 15 13 11 10 11
0 0 2 4 6 7 7 8 12 14 14 15 15 13 12 13 13 13 14 14 15 17 18 16 14 14 14 12 12 13 15 17 18 19 18 18 19 17 15 14 12 9 9 9
Wind_Speed
2 1 4 8 8 7 4 2 2 3 2 3 3 2 5 7 7 7 7 7 9 10 8 9 10 9 8 7 6 5 5 4 3 2 2 2 1 1 1 1 2 2 2 2
2 6 11 8 5 4 3 2 2 2 2 3 2 2 4 7 10 10 10 10 10 8 8 8 9 9 9 8 7 6 5 5 4 3 3 2 2 1 1 1 1 2 2 2
7 10 7 6 5 4 4 5 5 4 1 2 3 2 2 4 5 6 8 9 10 12 12 11 10 9 9 9 8 7 6 5 5 4 2 2 2 1 1 1 0 1 2 2
7 9 6 6 6 5 5 7 6 5 3 2 1 1 5 4 4 6 8 8 10 11 11 11 10 10 10 10 8 7 6 6 5 5 4 4 3 2 2 2 1 1 1 2
6 5 5 6 8 5 6 6 5 4 2 1 1 2 6 3 5 9 9 10 11 11 12 13 13 12 11 10 9 7 7 6 5 5 5 5 3 3 1 1 1 1 1 1
9 7 5 7 6 4 4 4 4 4 4 1 5 3 6 6 10 9 9 9 10 11 11 12 12 11 9 9 9 8 7 6 6 5 5 5 5 4 3 2 2 1 1 1
6 8 5 3 1 2 3 6 4 5 4 5 4 3 8 8 8 9 9 9 9 10 10 10 11 11 11 11 10 9 8 7 6 6 6 6 6 5 5 3 3 2 1 1
4 7 6 4 7 7 4 9 8 5 5 4 3 4 7 4 5 5 7 8 9 9 9 10 11 11 11 11 10 10 9 8 8 7 6 6 5 4 3 3 3 3 2 3
6 7 7 5 5 8 4 3 8 7 2 0 3 4 6 2 3 4 5 7 8 8 7 8 9 10 10 10 10 11 10 9 8 8 7 6 5 5 4 4 3 2 2 2
8 4 7 4 2 0 7 6 5 5 4 2 4 3 4 4 3 3 4 6 7 8 7 6 7 9 9 9 9 9 9 9 8 8 7 7 6 5 5 3 3 3 3 2
5 4 5 3 2 3 1 2 4 4 6 6 3 7 8 9 8 6 6 7 8 8 8 6 6 7 8 8 9 8 8 6 7 8 7 6 6 5 4 4 4 3 3 3
3 5 3 5 5 5 5 5 6 4 3 5 4 8 5 8 7 7 6 5 6 6 6 6 6 6 7 8 8 8 7 6 7 7 7 6 5 5 4 4 4 4 3 3
4 6 2 7 8 5 1 2 4 6 4 4 4 7 2 3 3 4 5 5 5 5 5 5 5 6 7 7 6 6 7 7 6 6 6 6 5 5 5 5 4 4 3 3
6 5 7 7 7 4 3 3 1 5 4 3 6 5 2 2 4 4 5 6 6 5 6 6 6 5 6 7 8 7 6 6 6 6 7 6 6 6 5 4 4 4 3 3
6 3 2 4 5 3 2 3 2 2 5 6 6 6 7 7 7 7 6 5 6 5 5 5 6 5 6 6 6 7 6 5 5 6 6 6 5 4 4 4 4 3 3 4
4 3 2 2 2 1 2 2 1 1 2 3 3 4 5 5 4 4 5 6 5 6 6 5 5 5 6 7 6 6 6 5 5 5 5 5 4 4 4 4 4 3 3 2
2 4 3 2 3 3 3 3 1 1 1 4 5 5 4 5 6 6 6 7 6 6 6 6 6 6 6 6 7 7 6 5 5 5 4 4 4 4 4 4 3 3 3 3
4 3 3 1 2 3 8 4 3 3 0 1 2 3 6 7 6 5 5 6 5 4 4 4 5 5 5 5 6 6 6 6 5 4 3 3 3 3 3 4 4 3 3 3
6 6 4 3 2 4 5 2 2 3 1 1 4 3 3 6 6 3 2 4 5 5 5 4 3 4 5 6 6 6 6 6 5 5 4 4 4 3 4 4 4 3 3 2
4 6 6 3 3 4 6 5 2 6 1 2 4 5 4 6 4 3 2 2 3 4 4 3 3 4 4 4 5 7 5 5 5 5 5 4 4 4 3 3 3 2 2 2
2 3 4 4 3 5 6 5 4 4 5 3 3 5 5 4 5 3 2 3 3 4 4 4 4 4 3 4 6 6 5 4 4 3 3 3 3 3 3 3 2 2 2 2
3 2 3 4 3 6 6 3 3 5 3 2 4 4 5 5 4 4 4 4 4 4 5 5 5 4 3 4 6 6 5 4 3 3 3 2 2 2 2 3 2 2 2 2
1 4 5 6 6 5 1 2 2 3 4 3 4 4 6 6 5 4 4 4 4 4 4 4 5 5 2 3 5 6 4 4 5 4 3 3 2 2 2 3 3 2 2 2
3 2 3 2 1 1 3 4 4 4 4 5 6 6 7 6 5 4 3 3 3 3 3 4 5 4 2 2 3 3 3 4 5 4 3 3 3 2 1 2 2 2 2 2
2 1 2 1 1 3 5 4 4 5 5 7 6 5 6 7 5 4 4 3 3 3 2 4 4 3 2 2 2 3 3 4 4 3 3 2 2 2 1 1 2 3 4 5
2 3 3 4 4 2 1 1 4 5 4 6 6 5 4 5 5 4 4 2 3 3 3 3 3 3 2 2 2 2 3 4 5 3 2 2 2 1 1 1 1 2 2 4
Wind_Direction
271 96 239 233 216 210 203 200 223 240 201 119 170 204 193 178 179 184 182 179 181 183 174 165 163 160 154 153 153 157 153 161 149 138 134 137 150 165 141 163 166 160 157 156
358 254 238 230 229 204 182 167 237 247 201 116 143 217 208 188 190 190 189 188 186 179 164 166 163 162 163 165 166 163 164 165 164 165 164 166 162 172 169 171 164 177 170 163
215 246 246 237 236 221 209 193 205 187 99 59 107 346 239 231 201 202 196 191 185 180 175 174 171 170 169 170 172 171 173 168 170 161 137 117 80 53 51 62 168 212 180 173
243 251 251 244 237 199 229 215 176 161 124 252 157 247 273 231 222 214 207 195 192 187 178 175 175 174 176 179 174 170 170 169 171 159 146 148 151 165 198 193 194 201 180 175
254 252 239 234 233 214 213 193 163 156 133 69 301 146 273 228 220 221 211 199 194 190 181 178 180 179 180 178 173 171 168 169 172 166 165 159 160 178 178 166 168 192 212 185
250 256 223 223 235 195 144 86 44 44 71 330 242 175 257 222 214 209 203 195 190 187 184 180 180 175 176 177 174 172 171 178 178 173 174 171 166 166 160 172 184 209 217 212
291 286 266 212 236 286 101 92 40 357 4 257 252 189 242 228 207 197 192 188 183 180 176 179 179 177 179 179 177 177 177 184 184 181 184 180 176 174 179 186 187 179 180 204
232 277 261 222 188 195 198 142 158 192 217 267 313 242 261 234 185 179 171 169 168 176 176 180 183 180 181 181 179 178 182 186 185 186 189 187 180 182 189 188 183 186 191 204
196 250 271 240 200 158 170 189 171 144 174 179 275 287 317 50 127 141 147 147 153 169 182 182 180 180 180 181 182 183 184 187 189 189 187 185 186 184 186 186 184 192 198 200
178 239 280 271 36 166 161 164 102 118 149 232 285 260 232 221 193 159 157 160 159 167 174 179 188 185 181 180 181 178 182 192 191 189 191 188 190 191 191 181 187 195 201 198
166 184 292 358 169 211 92 104 117 127 150 154 222 262 218 198 191 183 189 177 171 174 171 171 187 190 182 176 173 177 184 186 188 191 193 190 190 189 186 186 197 196 190 184
170 139 237 261 253 199 164 173 144 148 218 164 176 258 243 189 186 171 174 173 168 168 161 161 174 179 175 176 175 177 180 184 191 189 184 188 189 186 186 194 199 190 185 186
138 112 78 334 335 348 42 179 152 140 132 158 174 258 291 158 163 175 168 163 162 153 151 148 153 167 168 169 170 181 185 188 191 184 180 184 189 191 197 201 197 190 188 186
108 115 157 192 224 237 278 287 168 124 149 201 212 223 263 204 183 180 162 153 152 151 149 149 154 161 164 167 170 181 190 192 186 181 183 188 195 197 198 194 191 192 186 183
89 119 185 214 228 218 236 264 272 160 183 183 219 206 212 201 186 177 162 146 135 138 148 151 157 165 166 167 170 172 177 189 183 177 184 193 191 182 174 178 186 186 187 190
63 105 57 331 303 296 306 294 259 241 175 184 183 231 225 178 145 142 146 146 145 159 166 163 159 157 168 170 172 173 173 176 167 170 183 186 177 173 177 182 183 178 184 186
64 93 78 287 307 23 306 261 200 242 230 172 198 223 160 138 151 164 160 154 165 173 169 162 172 171 172 175 170 171 170 161 163 171 170 168 168 175 185 186 174 179 187 183
133 108 124 157 39 231 244 249 151 141 85 105 140 159 160 161 158 150 147 151 157 152 149 168 184 173 167 163 157 155 148 146 148 153 165 165 157 171 180 175 178 187 188 184
149 138 126 128 186 265 287 286 175 149 345 74 120 127 132 120 85 47 163 165 168 161 156 165 171 154 144 149 151 140 140 143 143 156 168 172 165 166 176 180 188 184 172 185
89 114 124 136 161 221 254 283 238 106 22 321 125 140 135 109 115 232 219 152 134 122 125 133 126 109 121 132 130 126 137 141 156 169 169 167 163 157 160 169 166 164 166 188
39 63 132 160 195 253 271 303 60 112 228 268 132 137 137 146 180 183 128 103 112 115 118 117 106 108 128 128 121 129 137 155 176 172 156 153 162 168 165 158 159 161 167 163
165 149 178 150 172 250 301 29 111 203 210 123 113 117 126 129 116 108 105 96 94 98 109 118 118 109 112 125 130 137 154 167 152 140 130 137 153 174 153 138 134 135 144 147
155 188 184 178 201 232 267 140 183 150 114 99 106 113 125 119 114 111 105 110 109 107 113 114 118 115 121 137 140 148 170 154 146 145 147 143 137 140 135 139 144 147 154 169
321 3 83 61 320 360 48 52 53 74 97 103 105 111 116 117 119 118 109 102 102 111 117 107 102 105 111 125 130 149 152 144 138 144 151 148 139 145 153 158 168 179 186 194
268 13 55 72 306 30 19 30 49 56 72 80 78 88 107 113 114 121 121 124 124 110 106 112 121 132 134 130 143 152 143 133 133 143 155 157 159 169 183 190 202 204 215 203
237 171 157 210 223 160 246 304 63 60 61 90 89 69 83 106 114 106 115 128 124 118 107 108 117 124 123 125 137 140 137 136 140 155 172 174 169 176 184 181 301 292 250 233